This demonstration page uses our WeatherBlox Daily Observations layout. Learn more.

38.88101, -77.10428

Hourly Observations for March 10, 2018

Temp ( °F °C ) Dew Point ( °F °C ) Humidity (%) Winds ( mph kmh ) Pressure ( in mb ) Visibility ( mi km ) Precip ( " mm )
12:52 am 00:52 Partly Cloudy 34 1.1 16 -8.9 48 48 WSW 5 7 30.04 1017 10 16.0934 0 0
1:52 am 01:52 Partly Cloudy 34 1.1 17 -8.3 50 50 WSW 7 11 30.05 1018 10 16.0934 0 0
2:52 am 02:52 Mostly Cloudy 34 1.1 17 -8.3 50 50 Calm 30.04 1017 10 16.0934 0 0
3:52 am 03:52 Mostly Cloudy 34 1.1 19 -7.2 54 54 SW 3 6 30.04 1017 10 16.0934 0 0
4:52 am 04:52 Partly Cloudy 34 1.1 19 -7.2 54 54 Calm 30.05 1018 10 16.0934 0 0
5:52 am 05:52 Mostly Clear 34 1.1 17 -8.3 50 50 NNW 7 11 30.06 1018 10 16.0934 0 0
6:52 am 06:52 Mostly Cloudy 32 0 21 -6.1 64 64 N 7 11 30.07 1018 10 16.0934 0 0
7:52 am 07:52 Mostly Cloudy 36 2.2 20 -6.7 52 52 NNW 10 17 30.09 1019 10 16.0934 0 0
8:52 am 08:52 Mostly Cloudy 38 3.3 18 -7.8 44 44 NW 10 17 30.1 1019 10 16.0934 0 0
9:52 am 09:52 Mostly Cloudy 42 5.6 19 -7.2 40 40 NW 8 13 30.09 1019 10 16.0934 0 0
10:52 am 10:52 Partly Cloudy 44 6.7 20 -6.7 38 38 WNW 7 11 30.08 1019 10 16.0934 0 0
11:52 am 11:52 Partly Cloudy 46 7.8 19 -7.2 34 34 WSW 13 20 30.05 1018 10 16.0934 0 0
12:52 pm 12:52 Partly Cloudy 46 7.8 20 -6.7 35 35 WSW 13 20 30.02 1017 10 16.0934 0 0
1:52 pm 13:52 Partly Cloudy 47 8.3 23 -5 39 39 S 14 22 29.98 1015 10 16.0934 0 0
2:29 pm 14:29 Partly Cloudy 48 8.9 20 -6.7 33 33 SSW 13 20 29.97 1015 10 16.0934 0 0
2:52 pm 14:52 Mostly Sunny 47 8.3 22 -5.6 37 37 SSW 9 15 29.97 1015 10 16.0934 0 0
3:52 pm 15:52 Mostly Sunny 47 8.3 26 -3.3 44 44 S 14 22 29.97 1015 10 16.0934 0 0
4:52 pm 16:52 Mostly Sunny 48 8.9 22 -5.6 36 36 SSW 10 17 29.98 1015 10 16.0934 0 0
5:52 pm 17:52 Mostly Sunny 46 7.8 23 -5 40 40 S 9 15 30 1016 10 16.0934 0 0
6:52 pm 18:52 Mostly Clear 44 6.7 23 -5 43 43 SW 9 15 30.03 1017 10 16.0934 0 0
7:52 pm 19:52 Clear 43 6.1 23 -5 45 45 SW 6 9 30.05 1018 10 16.0934 0 0
8:52 pm 20:52 Clear 42 5.6 24 -4.4 49 49 SSW 3 6 30.07 1018 10 16.0934 0 0
9:52 pm 21:52 Clear 41 5 30 -1.1 65 65 Calm 30.07 1018 10 16.0934 0 0
10:52 pm 22:52 Partly Cloudy 41 5 21 -6.1 45 45 NNE 10 17 30.07 1018 10 16.0934 0 0
11:52 pm 23:52 Partly Cloudy 40 4.4 20 -6.7 45 45 NNE 12 19 30.08 1019 10 16.0934 0 0

Powered by AerisWeather